Location: Newark
(44.9333°N, 0.5667°E)
Time: 22:44:19
(UTC+00:00)

N. Korean satellite - Pass Details

Date: 14 December 2019
Orbit: 454 x 507 km, 97.2° (Epoch: 21 January)

Event Time Altitude Azimuth Distance (km) Brightness Sun altitude
Rises 06:25:42 0° 3° (N) 2,536 10.0 -10.6°
Reaches altitude 10° 06:27:54 10° 354° (N) 1,643 9.0 -10.2°
Maximum altitude 06:31:06 34° 289° (WNW) 797 7.1 -9.7°
Drops below altitude 10° 06:34:14 10° 223° (SW) 1,607 9.0 -9.2°
Sets 06:36:22 0° 214° (SW) 2,470 10.1 -8.8°
